Flag for Australia Weather past 2 weeks in Broome, Western Australia, Australia

Now
85 °F

Sunny.


Feels Like: 84 °F
Forecast: 60 / 85 °F
Wind: 8 mph from Northwest

Location: Broome Airport

Current Time: Sep 3, 2014 at 1:32:00 PM

Latest Report: Sep 3, 2014 at 12:00 PM


Visibility: 25 mi

Pressure: 29.95 "Hg

Humidity: 36%

Dew point: 56 °F

Location of BroomeLocation

Historic Weather in Broome — Graph

°F

Broome temperature yesterday

Maximum temperature yesterday: 97 °F (at 12:00 PM)
Minimum temperature yesterday: 56 °F (at 2:00 AM)
Average temperature yesterday: 71 °F

Past Weeks' High & Low Weather Summary

 TemperatureHumidityPressure
High97 °F (Sep 2, 12:00 PM)100% (Aug 22, 5:00 AM)30.08 "Hg (Aug 22, 5:00 AM)
Low49 °F (Aug 30, 6:00 AM)3% (Aug 29, 12:00 PM)29.87 "Hg (Aug 31, 2:00 PM)
Average70 °F57%29.98 "Hg
* Reported Aug 19 12:00 Noon — Sep 3 12:00 Noon, Broome, Weather by CustomWeather, © 2014

Note: Actual official high and low records may vary slightly from our data, if they occured in-between our weather recording intervals... More about our weather records

Advertising

Broome weather history for previous 24 hours

 ConditionsComfort  
Time TempWeatherWind HumidityBarometerVisibility
12:00 PM
Sep 3
85 °FSunny.8 mph36%29.95 "Hg25 mi
11:00 AM84 °FPleasantly warm.8 mph37%29.98 "HgN/A
9:00 AM80 °FSunny.6 mph45%30.01 "Hg25 mi
8:00 AM75 °FMild.5 mph71%30.01 "HgN/A
6:00 AM62 °FFog.6 mph100%30.00 "Hg19 mi
5:00 AM60 °FCool.7 mph99%29.99 "HgN/A
3:00 AM59 °FLow clouds.No wind100%29.96 "Hg0 mi
2:00 AM60 °FCool.No wind99%29.97 "HgN/A
12:00 AM59 °FLow clouds.No wind100%29.98 "Hg0 mi
11:00 PM
Sep 2
62 °FCool.No wind97%29.99 "HgN/A
9:00 PM67 °FClear.3 mph95%29.98 "Hg19 mi
8:00 PM69 °FMild.1 mph97%29.97 "HgN/A
6:00 PM74 °FClear.7 mph87%29.93 "Hg19 mi
5:00 PM78 °FWarm.10 mph73%29.91 "HgN/A
3:00 PM81 °FSunny.10 mph58%29.90 "Hg19 mi
2:00 PM83 °FWarm.13 mph48%29.91 "HgN/A
Weather by CustomWeather, © 2014

See weather overviewHow to use our weather pages